User: anonymous   Login
Location: Marsån
(66.4167°N, 22.2833°E)
Time: 19:40:54
(UTC+00:00)
Language:

Meteor 1-29 - Orbit

View from above orbital plane
View from above orbital plane
View from above satellite
View from above satellite

Ground track
Ground track

The orbit data is extracted from the following two-line orbital elements,

1 11251U 79005A   24061.88203663  .38834900  27788-5  12891-3 0  9996
2 11251  97.6964 100.1987 0014168 340.7350 108.1365 16.59025602 17706
Epoch (UTC): 01 March 2024 21:10:07
Eccentricity: 0.0014168
inclination: 97.6964°
perigee height: 106 km
apogee height: 125 km
right ascension of ascending node: 100.1987°
argument of perigee: 340.7350°
revolutions per day: 16.59025602
mean anomaly at epoch: 108.1365°
orbit number at epoch: 1770

The dashed part of the orbit path shows where the satellite is in the earth's shadow,  

DLR